Desert Center, CA

11:13 AM PST on December 10, 2016 (GMT -0800)
Blythe

Weather History for KBLH - August, 2014

Change the Weather History Date:

Thursday, August 14, 2014

  Actual Average Record
Temperature  
Mean Temperature 94 °F -  
Max Temperature 105 °F 105 °F 116 °F (2015)
Min Temperature 84 °F 80 °F 68 °F (1985)
Cooling Degree Days 29    
Growing Degree Days 44 (Base 50)    
Moisture  
Dew Point 64 °F    
Average Humidity 40    
Maximum Humidity 72    
Minimum Humidity 15    
Precipitation  
Precipitation 0.00 in - - ()
Sea Level Pressure  
Sea Level Pressure 29.82 in    
Wind  
Wind Speed 6 mph (South)    
Max Wind Speed 16 mph    
Max Gust Speed 20 mph    
Visibility 10 miles    
Events      
Averages and records for this station are not official NWS values.
T = Trace of Precipitation, MM = Missing Value Source: NWS Daily Summary

Daily Weather History Graph

Daily Weather History Graph

Search for Another Location

Airport or City:

Trip Planner

Search our weather history database for the weather conditions in past years. The results will help you decide how hot, cold, wet, or windy it might be!

Date:

Astronomy

Aug. 14, 2014 Rise Set
Actual Time 6:00 AM PDT 7:26 PM PDT
Civil Twilight 5:34 AM PDT 7:52 PM PDT
Nautical Twilight 5:02 AM PDT 8:23 PM PDT
Astronomical Twilight 4:29 AM PDT 8:56 PM PDT
Moon 10:09 PM PDT (8/14) 10:25 AM PDT (8/14)
Length of Visible Light 14h 18m
Length of Day
13h 25m
Waning Gibbous, 78% of the Moon is Illuminated
Aug 14
Waning Gibbous
Aug 17
Last Quarter
Aug 25
New
Sep 2
First Quarter
Sep 8
Full

Hourly Weather History & Observations

Time (PDT) Temp. Heat Index Dew Point Humidity Pressure Visibility Wind Dir Wind Speed Gust Speed Precip Events Conditions
12:52 AM 90.0 °F 96.4 °F 71.1 °F 54% 29.83 in 10.0 mi SW 4.6 mph - N/A   Clear
1:52 AM 88.0 °F 94.7 °F 72.0 °F 59% 29.82 in 10.0 mi Calm Calm - N/A   Clear
2:52 AM 84.9 °F 91.4 °F 73.0 °F 67% 29.83 in 10.0 mi East 3.5 mph - N/A   Clear
3:52 AM 86.0 °F 93.8 °F 73.9 °F 67% 29.83 in 10.0 mi SE 5.8 mph - N/A   Clear
4:52 AM 84.9 °F 93.3 °F 75.0 °F 72% 29.83 in 10.0 mi Calm Calm - N/A   Clear
5:52 AM 84.0 °F 91.2 °F 73.9 °F 72% 29.84 in 10.0 mi SE 3.5 mph - N/A   Clear
6:52 AM 86.0 °F 93.0 °F 73.0 °F 65% 29.85 in 10.0 mi East 3.5 mph - N/A   Clear
7:52 AM 88.0 °F 92.1 °F 69.1 °F 53% 29.86 in 10.0 mi SE 4.6 mph - N/A   Clear
8:52 AM 91.0 °F 94.3 °F 66.9 °F 45% 29.87 in 10.0 mi South 8.1 mph - N/A   Clear
9:52 AM 95.0 °F 99.5 °F 68.0 °F 41% 29.87 in 10.0 mi South 9.2 mph - N/A   Clear
10:52 AM 97.0 °F 100.4 °F 66.0 °F 36% 29.87 in 10.0 mi South 16.1 mph - N/A   Clear
11:52 AM 100.0 °F 101.8 °F 63.0 °F 29% 29.86 in 10.0 mi South 10.4 mph 18.4 mph N/A   Clear
12:52 PM 100.0 °F 101.2 °F 61.0 °F 28% 29.84 in 10.0 mi South 12.7 mph 19.6 mph N/A   Clear
1:52 PM 102.0 °F 102.7 °F 60.1 °F 25% 29.82 in 10.0 mi South 13.8 mph - N/A   Clear
2:52 PM 102.9 °F 103.0 °F 59.0 °F 23% 29.79 in 10.0 mi SSE 11.5 mph - N/A   Clear
3:52 PM 104.0 °F 104.6 °F 59.0 °F 23% 29.76 in 10.0 mi SSE 13.8 mph - N/A   Clear
4:52 PM 104.0 °F 104.0 °F 57.9 °F 22% 29.74 in 10.0 mi South 11.5 mph - N/A   Clear
5:52 PM 104.0 °F 102.9 °F 55.0 °F 20% 29.74 in 10.0 mi South 5.8 mph - N/A   Clear
6:52 PM 102.9 °F 101.4 °F 55.0 °F 20% 29.75 in 10.0 mi SSW 6.9 mph 19.6 mph N/A   Clear
7:52 PM 102.0 °F - 46.0 °F 15% 29.77 in 10.0 mi SW 8.1 mph - N/A   Clear
8:52 PM 99.0 °F - 48.0 °F 18% 29.78 in 10.0 mi WSW 6.9 mph - N/A   Clear
9:52 PM 96.1 °F - 48.9 °F 20% 29.79 in 10.0 mi WSW 5.8 mph - N/A   Clear
10:52 PM 96.1 °F 96.9 °F 62.1 °F 32% 29.80 in 10.0 mi SW 16.1 mph - N/A   Clear
11:52 PM 91.0 °F 96.6 °F 70.0 °F 50% 29.83 in 10.0 mi South 15.0 mph - N/A   Clear